TAX09JF LICR-LYTV

Flight info

Callsign TAX09JF
Flight time 0h 49m
Altitude 18000
Route PAZZE L869 CDC/N0385F170 L869 KOGEB/N0380F160 DCT OKIMO DCT CRAYE/N0374F150 W36 KOFER
Aircraft A320/M-SDE3FGHIRWY/LB1

Departure

Time 2026-04-29 10:03
Airport Reggio Calabria Airport (LICR)

Arrival

Time 2026-04-29 10:53
Airport Tivat Airport (LYTV)
Time Latitude Longitude Altitude Speed Heading
2026-04-29 09:46 38.07366 15.65296 62 ft 0 kts 70°
2026-04-29 09:55 38.07363 15.65285 53 ft 4 kts 69°
2026-04-29 09:56 38.07357 15.65254 55 ft 4 kts 103°
2026-04-29 09:56 38.07370 15.65229 56 ft 3 kts 152°
2026-04-29 09:56 38.07377 15.65224 58 ft 0 kts 153°
2026-04-29 09:59 38.07324 15.65186 62 ft 17 kts 243°
2026-04-29 09:59 38.07305 15.65052 62 ft 16 kts 297°
2026-04-29 09:59 38.07397 15.64978 61 ft 15 kts 335°
2026-04-29 10:00 38.07485 15.64921 58 ft 13 kts 333°
2026-04-29 10:00 38.07588 15.64852 62 ft 23 kts 332°
2026-04-29 10:00 38.07757 15.64744 61 ft 29 kts 333°
2026-04-29 10:00 38.07934 15.64630 62 ft 28 kts 333°
2026-04-29 10:01 38.08111 15.64511 60 ft 29 kts 332°
2026-04-29 10:01 38.08187 15.64474 59 ft 1 kts 342°
2026-04-29 10:01 38.08171 15.64460 57 ft 5 kts 162°
2026-04-29 10:01 38.08150 15.64483 61 ft 3 kts 137°
2026-04-29 10:02 38.08138 15.64493 61 ft 1 kts 148°
2026-04-29 10:02 38.08135 15.64495 60 ft 0 kts 152°
2026-04-29 10:03 38.08133 15.64496 59 ft 6 kts 152°
2026-04-29 10:03 38.07836 15.64690 59 ft 85 kts 153°
2026-04-29 10:03 38.07123 15.65145 70 ft 141 kts 156°
2026-04-29 10:03 38.06251 15.65695 733 ft 136 kts 155°
2026-04-29 10:04 38.05416 15.66243 1442 ft 135 kts 149°
2026-04-29 10:04 38.04769 15.67194 1849 ft 156 kts 110°
2026-04-29 10:04 38.04790 15.68653 2130 ft 178 kts 85°
2026-04-29 10:04 38.04767 15.70286 2479 ft 192 kts 97°
2026-04-29 10:05 38.04640 15.72011 3057 ft 204 kts 98°
2026-04-29 10:05 38.04452 15.73869 4003 ft 216 kts 100°
2026-04-29 10:05 38.04333 15.75923 4648 ft 249 kts 85°
2026-04-29 10:05 38.04818 15.78123 5412 ft 271 kts 64°
2026-04-29 10:06 38.05940 15.80070 6226 ft 278 kts 41°
2026-04-29 10:06 38.07426 15.81646 7078 ft 281 kts 38°
2026-04-29 10:06 38.08960 15.83230 7917 ft 285 kts 37°
2026-04-29 10:06 38.10512 15.84825 8789 ft 289 kts 37°
2026-04-29 10:07 38.12079 15.86444 9621 ft 293 kts 37°
2026-04-29 10:07 38.13663 15.88093 10373 ft 297 kts 37°
2026-04-29 10:07 38.15323 15.89819 10658 ft 320 kts 37°
2026-04-29 10:07 38.17111 15.91679 10871 ft 344 kts 37°
2026-04-29 10:08 38.19016 15.93667 11105 ft 363 kts 37°
2026-04-29 10:08 38.20990 15.95735 11627 ft 371 kts 37°
2026-04-29 10:08 38.23023 15.97873 12331 ft 376 kts 37°
2026-04-29 10:08 38.25047 16.00005 13033 ft 380 kts 38°
2026-04-29 10:09 38.27095 16.02161 13744 ft 383 kts 38°
2026-04-29 10:09 38.29161 16.04336 14347 ft 388 kts 38°
2026-04-29 10:09 38.31248 16.06535 14931 ft 391 kts 38°
2026-04-29 10:09 38.33356 16.08753 15511 ft 395 kts 38°
2026-04-29 10:10 38.35482 16.10990 16090 ft 398 kts 38°
2026-04-29 10:10 38.37630 16.13248 16655 ft 402 kts 38°
2026-04-29 10:10 38.39795 16.15529 17204 ft 405 kts 38°
2026-04-29 10:10 38.41976 16.17831 17743 ft 409 kts 38°
2026-04-29 10:11 38.44170 16.20146 18037 ft 411 kts 38°
2026-04-29 10:11 38.46407 16.22509 18100 ft 424 kts 38°
2026-04-29 10:11 38.48721 16.24960 18096 ft 440 kts 38°
2026-04-29 10:11 38.51097 16.27479 18095 ft 446 kts 38°
2026-04-29 10:12 38.53489 16.30018 18093 ft 448 kts 38°
2026-04-29 10:12 38.55888 16.32564 18094 ft 448 kts 38°
2026-04-29 10:12 38.58286 16.35108 18100 ft 448 kts 38°
2026-04-29 10:12 38.60685 16.37654 18090 ft 448 kts 38°
2026-04-29 10:13 38.63076 16.40201 18092 ft 447 kts 38°
2026-04-29 10:13 38.65460 16.42746 18092 ft 446 kts 39°
2026-04-29 10:13 38.67841 16.45287 18091 ft 446 kts 39°
2026-04-29 10:13 38.70226 16.47827 18089 ft 446 kts 39°
2026-04-29 10:14 38.72611 16.50367 18091 ft 446 kts 39°
2026-04-29 10:14 38.75023 16.52944 18088 ft 445 kts 39°
2026-04-29 10:14 38.77397 16.55487 18088 ft 445 kts 39°
2026-04-29 10:14 38.79774 16.58034 18088 ft 445 kts 39°
2026-04-29 10:15 38.82153 16.60582 18086 ft 445 kts 39°
2026-04-29 10:15 38.84606 16.62994 18088 ft 444 kts 31°
2026-04-29 10:15 38.87297 16.64928 18086 ft 443 kts 26°
2026-04-29 10:15 38.90043 16.66721 18082 ft 443 kts 26°
2026-04-29 10:16 38.92787 16.68518 18081 ft 443 kts 26°
2026-04-29 10:16 38.94640 16.69737 18084 ft 443 kts 26°
2026-04-29 10:16 38.98276 16.72134 18082 ft 443 kts 25°
2026-04-29 10:16 39.01052 16.73968 18081 ft 443 kts 26°
2026-04-29 10:17 39.03792 16.75778 18085 ft 443 kts 26°
2026-04-29 10:17 39.06532 16.77589 18085 ft 443 kts 26°
2026-04-29 10:17 39.09269 16.79397 18079 ft 442 kts 26°
2026-04-29 10:17 39.12010 16.81205 18083 ft 442 kts 26°
2026-04-29 10:18 39.14752 16.83016 18079 ft 443 kts 26°
2026-04-29 10:18 39.17489 16.84829 18077 ft 443 kts 26°
2026-04-29 10:18 39.20213 16.86632 18081 ft 443 kts 26°
2026-04-29 10:18 39.22953 16.88445 18086 ft 443 kts 26°
2026-04-29 10:19 39.25694 16.90260 18088 ft 443 kts 26°
2026-04-29 10:19 39.28436 16.92080 18083 ft 443 kts 26°
2026-04-29 10:19 39.31170 16.93898 18086 ft 443 kts 26°
2026-04-29 10:19 39.33915 16.95725 18084 ft 443 kts 26°
2026-04-29 10:20 39.36655 16.97552 18080 ft 443 kts 26°
2026-04-29 10:20 39.39427 16.99400 18077 ft 443 kts 26°
2026-04-29 10:20 39.42166 17.01227 18075 ft 443 kts 26°
2026-04-29 10:20 39.44014 17.02461 18075 ft 443 kts 26°
2026-04-29 10:21 39.46749 17.04290 18075 ft 443 kts 26°
2026-04-29 10:21 39.49487 17.06123 18089 ft 443 kts 26°
2026-04-29 10:21 39.52222 17.07955 18085 ft 443 kts 26°
2026-04-29 10:21 39.54957 17.09788 18078 ft 443 kts 26°
2026-04-29 10:22 39.57695 17.11624 18080 ft 443 kts 26°
2026-04-29 10:22 39.60437 17.13461 18077 ft 444 kts 27°
2026-04-29 10:22 39.63178 17.15301 18088 ft 444 kts 26°
2026-04-29 10:22 39.65917 17.17139 18087 ft 444 kts 26°
2026-04-29 10:23 39.68659 17.18984 18095 ft 444 kts 26°
2026-04-29 10:23 39.71398 17.20833 18092 ft 444 kts 26°
2026-04-29 10:23 39.74134 17.22685 18088 ft 444 kts 26°
2026-04-29 10:23 39.76905 17.24562 18093 ft 444 kts 27°
2026-04-29 10:24 39.79644 17.26417 18091 ft 444 kts 26°
2026-04-29 10:24 39.82382 17.28266 18093 ft 444 kts 26°
2026-04-29 10:24 39.85121 17.30116 18098 ft 444 kts 26°
2026-04-29 10:24 39.87819 17.31944 18094 ft 444 kts 26°
2026-04-29 10:25 39.90607 17.33833 18100 ft 444 kts 26°
2026-04-29 10:25 39.93346 17.35691 18098 ft 444 kts 26°
2026-04-29 10:25 39.96085 17.37549 18095 ft 444 kts 26°
2026-04-29 10:25 39.98828 17.39407 18096 ft 444 kts 26°
2026-04-29 10:26 40.01564 17.41265 18087 ft 444 kts 26°
2026-04-29 10:26 40.04303 17.43124 18088 ft 444 kts 26°
2026-04-29 10:26 40.07040 17.44986 18084 ft 444 kts 26°
2026-04-29 10:26 40.09777 17.46854 18083 ft 444 kts 26°
2026-04-29 10:27 40.15255 17.50605 18086 ft 445 kts 26°
2026-04-29 10:27 40.17994 17.52480 18088 ft 445 kts 26°
2026-04-29 10:27 40.20586 17.54251 18088 ft 445 kts 26°
2026-04-29 10:28 40.23324 17.56126 18087 ft 445 kts 26°
2026-04-29 10:28 40.26067 17.58009 18085 ft 445 kts 26°
2026-04-29 10:28 40.28809 17.59893 18086 ft 445 kts 26°
2026-04-29 10:28 40.31552 17.61779 18088 ft 445 kts 26°
2026-04-29 10:29 40.34296 17.63665 18087 ft 445 kts 26°
2026-04-29 10:29 40.37040 17.65552 18089 ft 445 kts 26°
2026-04-29 10:29 40.39784 17.67440 18091 ft 445 kts 26°
2026-04-29 10:29 40.42528 17.69330 18080 ft 445 kts 25°
2026-04-29 10:30 40.45272 17.71224 18074 ft 446 kts 26°
2026-04-29 10:30 40.48015 17.73122 18074 ft 446 kts 25°
2026-04-29 10:30 40.50758 17.75020 18080 ft 446 kts 25°
2026-04-29 10:30 40.53500 17.76921 18083 ft 446 kts 26°
2026-04-29 10:31 40.56245 17.78825 18082 ft 446 kts 26°
2026-04-29 10:31 40.58990 17.80728 18080 ft 446 kts 26°
2026-04-29 10:31 40.61733 17.82630 18105 ft 446 kts 26°
2026-04-29 10:31 40.64474 17.84537 18109 ft 445 kts 26°
2026-04-29 10:32 40.67212 17.86444 18107 ft 445 kts 26°
2026-04-29 10:32 40.69949 17.88350 18101 ft 445 kts 26°
2026-04-29 10:32 40.72682 17.90257 18100 ft 445 kts 26°
2026-04-29 10:32 40.75417 17.92163 18098 ft 444 kts 26°
2026-04-29 10:33 40.78149 17.94068 18106 ft 444 kts 25°
2026-04-29 10:33 40.80879 17.95975 18094 ft 444 kts 25°
2026-04-29 10:33 40.83609 17.97885 18091 ft 444 kts 25°
2026-04-29 10:33 40.86332 17.99794 18090 ft 443 kts 25°
2026-04-29 10:34 40.89058 18.01707 18085 ft 443 kts 25°
2026-04-29 10:34 40.91818 18.03508 18085 ft 441 kts 19°
2026-04-29 10:34 40.94726 18.04746 18086 ft 438 kts 10°
2026-04-29 10:34 40.97723 18.05371 18088 ft 435 kts
2026-04-29 10:35 41.00731 18.05782 18087 ft 435 kts
2026-04-29 10:35 41.03743 18.06205 18088 ft 435 kts
2026-04-29 10:35 41.06754 18.06636 18086 ft 435 kts
2026-04-29 10:35 41.09761 18.07069 18085 ft 435 kts
2026-04-29 10:36 41.12772 18.07504 18089 ft 435 kts
2026-04-29 10:36 41.15786 18.07939 18087 ft 435 kts
2026-04-29 10:36 41.18792 18.08373 18096 ft 435 kts
2026-04-29 10:36 41.21804 18.08806 18096 ft 435 kts
2026-04-29 10:37 41.24812 18.09241 18093 ft 435 kts
2026-04-29 10:37 41.27824 18.09676 18092 ft 435 kts
2026-04-29 10:37 41.30832 18.10110 18091 ft 435 kts
2026-04-29 10:37 41.33839 18.10544 18093 ft 435 kts
2026-04-29 10:38 41.36846 18.10980 18091 ft 435 kts
2026-04-29 10:38 41.39856 18.11414 18092 ft 435 kts
2026-04-29 10:38 41.42863 18.11846 18092 ft 435 kts
2026-04-29 10:38 41.45865 18.12357 18088 ft 436 kts
2026-04-29 10:39 41.48794 18.13463 18087 ft 439 kts 18°
2026-04-29 10:39 41.51520 18.15202 17840 ft 430 kts 28°
2026-04-29 10:39 41.53940 18.17513 17580 ft 428 kts 38°
2026-04-29 10:39 41.56114 18.20220 17328 ft 427 kts 41°
2026-04-29 10:40 41.58269 18.22932 17070 ft 424 kts 41°
2026-04-29 10:40 41.60415 18.25623 16810 ft 422 kts 40°
2026-04-29 10:40 41.62555 18.28302 16549 ft 421 kts 40°
2026-04-29 10:40 41.64671 18.30952 16110 ft 414 kts 40°
2026-04-29 10:41 41.66761 18.33573 15572 ft 409 kts 41°
2026-04-29 10:41 41.68824 18.36168 15025 ft 405 kts 41°
2026-04-29 10:41 41.70863 18.38738 14478 ft 401 kts 41°
2026-04-29 10:41 41.72886 18.41286 13932 ft 398 kts 41°
2026-04-29 10:42 41.74891 18.43817 13336 ft 395 kts 41°
2026-04-29 10:42 41.76865 18.46344 12744 ft 390 kts 42°
2026-04-29 10:42 41.78806 18.48862 12165 ft 386 kts 42°
2026-04-29 10:42 41.80723 18.51363 11547 ft 383 kts 42°
2026-04-29 10:43 41.82617 18.53838 11143 ft 374 kts 42°
2026-04-29 10:43 41.84435 18.56220 11018 ft 357 kts 43°
2026-04-29 10:43 41.86176 18.58500 10899 ft 342 kts 42°
2026-04-29 10:43 41.87866 18.60658 10781 ft 328 kts 40°
2026-04-29 10:44 41.89528 18.62672 10657 ft 316 kts 39°
2026-04-29 10:44 41.91150 18.64587 10538 ft 305 kts 39°
2026-04-29 10:44 41.92723 18.66432 10349 ft 297 kts 39°
2026-04-29 10:44 41.94246 18.68272 10212 ft 292 kts 40°
2026-04-29 10:45 41.95733 18.70137 10136 ft 293 kts 41°
2026-04-29 10:45 41.97213 18.72025 9778 ft 296 kts 41°
2026-04-29 10:45 41.98705 18.73939 9407 ft 294 kts 42°
2026-04-29 10:45 42.00178 18.75832 9006 ft 293 kts 41°
2026-04-29 10:46 42.01650 18.77725 8571 ft 293 kts 41°
2026-04-29 10:46 42.03119 18.79611 8174 ft 291 kts 43°
2026-04-29 10:46 42.04581 18.81489 7749 ft 291 kts 43°
2026-04-29 10:46 42.06063 18.83393 7367 ft 290 kts 43°
2026-04-29 10:47 42.07490 18.85228 7235 ft 278 kts 43°
2026-04-29 10:47 42.08925 18.86827 7110 ft 265 kts 28°
2026-04-29 10:47 42.10626 18.87668 6931 ft 254 kts
2026-04-29 10:47 42.12361 18.87644 6624 ft 248 kts 346°
2026-04-29 10:48 42.14026 18.87051 6255 ft 248 kts 342°
2026-04-29 10:48 42.15686 18.86436 5892 ft 247 kts 343°
2026-04-29 10:48 42.17299 18.85668 5535 ft 245 kts 337°
2026-04-29 10:48 42.18890 18.84842 5186 ft 245 kts 338°
2026-04-29 10:49 42.20482 18.84020 4834 ft 244 kts 337°
2026-04-29 10:49 42.22063 18.83207 4310 ft 242 kts 338°
2026-04-29 10:49 42.23638 18.82398 3736 ft 243 kts 339°
2026-04-29 10:49 42.25219 18.81580 3065 ft 242 kts 339°
2026-04-29 10:50 42.26782 18.80760 2394 ft 240 kts 338°
2026-04-29 10:50 42.28309 18.80032 2036 ft 226 kts 342°
2026-04-29 10:50 42.29760 18.79425 1789 ft 210 kts 343°
2026-04-29 10:50 42.31036 18.78956 1596 ft 193 kts 346°
2026-04-29 10:51 42.32263 18.78510 1486 ft 170 kts 343°
2026-04-29 10:51 42.33296 18.78032 1651 ft 151 kts 339°
2026-04-29 10:51 42.34274 18.77485 1715 ft 156 kts 338°
2026-04-29 10:51 42.35250 18.76896 1474 ft 158 kts 336°
2026-04-29 10:52 42.36243 18.76259 1170 ft 158 kts 333°
2026-04-29 10:52 42.37212 18.75568 828 ft 153 kts 332°
2026-04-29 10:52 42.38116 18.74846 481 ft 151 kts 322°
2026-04-29 10:52 42.38970 18.74055 221 ft 145 kts 319°
2026-04-29 10:53 42.39725 18.73190 41 ft 140 kts 316°
2026-04-29 10:53 42.40389 18.72401 21 ft 113 kts 318°
2026-04-29 10:53 42.40778 18.71960 18 ft 49 kts 319°
2026-04-29 10:53 42.40947 18.71800 20 ft 20 kts 11°
2026-04-29 10:54 42.40988 18.71917 19 ft 0 kts 144°